CPA401 RCTP-VHHH

Flight info

Callsign CPA401
Flight time N/A
Altitude 36000
Route CHALI1A CHALI T3 MKG A1 ELATO V522 ABBEY
Aircraft B744/H-SDE3FGHIM1M2RWXY/LB1

Departure

Time 2026-04-30 22:53
Airport Taiwan Taoyuan International Airport (RCTP)

Arrival

Time N/A
Airport Hong Kong International Airport (VHHH)
Time Latitude Longitude Altitude Speed Heading
2026-04-30 22:34 25.07513 121.23227 120 ft 0 kts 320°
2026-04-30 22:42 25.07494 121.23245 120 ft 2 kts 320°
2026-04-30 22:43 25.07475 121.23273 120 ft 2 kts 276°
2026-04-30 22:43 25.07479 121.23294 120 ft 0 kts 240°
2026-04-30 22:47 25.07421 121.23213 120 ft 15 kts 219°
2026-04-30 22:47 25.07245 121.23117 120 ft 13 kts 204°
2026-04-30 22:48 25.07120 121.22984 120 ft 12 kts 226°
2026-04-30 22:49 25.06930 121.22828 120 ft 11 kts 224°
2026-04-30 22:49 25.06694 121.22593 120 ft 17 kts 230°
2026-04-30 22:50 25.06418 121.22255 120 ft 8 kts 224°
2026-04-30 22:51 25.06331 121.22291 120 ft 11 kts 139°
2026-04-30 22:51 25.06217 121.22401 120 ft 10 kts 139°
2026-04-30 22:52 25.06199 121.22469 120 ft 10 kts 62°
2026-04-30 22:52 25.06591 121.22970 121 ft 123 kts 49°
2026-04-30 22:53 25.08237 121.25029 1507 ft 202 kts 48°
2026-04-30 22:53 25.10057 121.27390 3362 ft 206 kts 50°
2026-04-30 22:53 25.10983 121.28635 4012 ft 213 kts 50°
2026-04-30 22:54 25.13369 121.30760 4796 ft 246 kts 13°
2026-04-30 22:55 25.17865 121.28248 7139 ft 257 kts 305°
2026-04-30 22:55 25.19895 121.24940 8909 ft 265 kts 303°
2026-04-30 22:56 25.22182 121.21679 10631 ft 272 kts 307°
2026-04-30 22:56 25.25979 121.16871 13072 ft 283 kts 308°
2026-04-30 22:57 25.27758 121.13088 14545 ft 285 kts 273°
2026-04-30 22:57 25.26412 121.08997 15994 ft 295 kts 235°
2026-04-30 22:58 25.23586 121.05605 17420 ft 303 kts 229°
2026-04-30 22:59 25.19216 121.00391 19417 ft 314 kts 227°
2026-04-30 22:59 25.14425 120.95330 21286 ft 324 kts 227°